Flag for U.S.A. Weather past 2 weeks in Newark, New Jersey, U.S.A.

Now
57 °F

Broken clouds.


Feels Like: 54 °F
Forecast: 45 / 62 °F
Wind: 13 mph from Northwest

Location: Newark International Airport

Current Time: Apr 27, 2015 at 12:20:11 PM

Latest Report: Apr 27, 2015 at 11:51 AM


Visibility: 10 mi

Pressure: 29.67 "Hg

Humidity: 37%

Dew point: 31 °F

Location of NewarkLocation

Historic Weather in Newark — Graph

°F

Newark temperature yesterday

Maximum temperature yesterday: 62 °F (at 3:51 PM)
Minimum temperature yesterday: 44 °F (at 5:51 AM)
Average temperature yesterday: 54 °F

Past Weeks' High & Low Weather Summary

 TemperatureHumidityPressure
High81 °F (Apr 18, 5:51 PM)100% (Apr 20, 10:51 PM)30.48 "Hg (Apr 20, 10:51 PM)
Low37 °F (Apr 25, 3:51 AM)10% (Apr 15, 5:51 PM)29.52 "Hg (Apr 22, 2:51 PM)
Average56 °F48%29.96 "Hg
* Reported Apr 12 10:51 AM — Apr 27 10:51 AM, Newark, Weather by CustomWeather, © 2015

Note: Actual official high and low records may vary slightly from our data, if they occured in-between our weather recording intervals... More about our weather records

Advertising

Newark weather history for previous 24 hours

 ConditionsComfort  
Time TempWeatherWind HumidityBarometerVisibility
10:51 AM
Mon, Apr 27
59 °FBroken clouds.14 mph36%29.68 "Hg10 mi
9:51 AM54 °FPartly sunny.12 mph45%29.68 "Hg10 mi
8:51 AM51 °FPartly sunny.9 mph50%29.68 "Hg10 mi
7:51 AM50 °FOvercast.8 mph50%29.68 "Hg10 mi
6:51 AM49 °FMostly cloudy.8 mph52%29.67 "Hg10 mi
5:51 AM49 °FMostly cloudy.8 mph50%29.67 "Hg10 mi
4:51 AM49 °FPassing clouds.10 mph48%29.67 "Hg10 mi
3:51 AM48 °FPassing clouds.8 mph50%29.67 "Hg10 mi
2:51 AM47 °FClear.7 mph54%29.68 "Hg10 mi
1:51 AM48 °FPassing clouds.7 mph52%29.69 "Hg10 mi
12:51 AM49 °FPassing clouds.6 mph48%29.69 "Hg10 mi
11:51 PM
Sun, Apr 26
51 °FPassing clouds.7 mph42%29.69 "Hg10 mi
10:51 PM53 °FPassing clouds.12 mph38%29.69 "Hg10 mi
9:51 PM54 °FPassing clouds.9 mph35%29.69 "Hg10 mi
8:51 PM56 °FPassing clouds.14 mph32%29.68 "Hg10 mi
7:51 PM58 °FPassing clouds.13 mph30%29.67 "Hg10 mi
6:51 PM60 °FPartly sunny.12 mph27%29.65 "Hg10 mi
5:51 PM61 °FPartly sunny.15 mph26%29.65 "Hg10 mi
4:51 PM61 °FPartly sunny.10 mph26%29.65 "Hg10 mi
3:51 PM62 °FOvercast.9 mph26%29.65 "Hg10 mi
2:51 PM60 °FPartly sunny.6 mph30%29.66 "Hg10 mi
1:51 PM59 °FPartly sunny.6 mph31%29.67 "Hg10 mi
12:51 PM61 °FScattered clouds.10 mph30%29.68 "Hg10 mi
Weather by CustomWeather, © 2015

See weather overviewHow to use our weather pages